Regional Weather Roundup
Issued by NWS Austin/San Antonio, TX

Home | Current Version | Previous Version | Text Only | Print | Product List | Glossary On
Versions: 1 2 3 4 5 6 7 8 9 10 11 12 13 14 15 16 17 18 19 20 21 22 23 24 25 26 27 28 29 30 31 32 33 34 35 36 37 38 39 40 41 42 43 44 45 46 47 48 49 50
710
ASUS44 KEWX 180202
RWREWX
SOUTH TEXAS REGIONAL WEATHER ROUNDUP
NATIONAL WEATHER SERVICE AUSTIN/SAN ANTONIO TX
800 PM CST SUN FEB 17 2019

NOTE: "FAIR" INDICATED FEW OR NO CLOUDS BELOW 12,000 FEET WITH NO
SIGNIFICANT WEATHER AND/OR OBSTRUCTIONS TO VISIBILITY.

* - THESE STATIONS ARE NOT NWS OR FAA STATIONS...AND ARE NOT SUBJECT
    TO NWS AND FAA QUALITY CONTROL.

TXZ171-172-183>190-180300-
TEXAS HILL COUNTRY AND EDWARDS PLATEAU

CITY           SKY/WX    TMP DP  RH WIND       PRES   REMARKS
JUNCTION       PTCLDY    50  32  50 E6        29.97R WCI  48
*LLANO         CLOUDY    52  34  50 CALM      30.02R
BURNET         CLOUDY    50  33  52 NE10      30.00R WCI  46
*HORSESHOE BAY CLOUDY    52  35  51 NE3       30.00R
*KERRVILLE     CLOUDY    52  33  48 NE9       29.95R
*FREDERICKSBRG CLOUDY    51  32  48 NE7       29.97R
*ROCKSPRINGS   PTCLDY    54  28  37 NE7       29.96R
*BOERNE STAGE  CLOUDY    52  34  50 N8        29.95R
*CASTROVILLE   CLOUDY    58  33  39 NE6       29.93R
HONDO          CLOUDY    59  35  40 NE12      29.91R
*UVALDE        CLOUDY    60  32  34 NE13      29.90R
DEL RIO        MOCLDY    64  31  28 E3        29.86R
LAUGHLIN AFB   MOCLDY    62  30  30 E5        29.86R
CARRIZO SPRGS  CLEAR     64  32  29 E6        29.88R
*FAITH RANCH   CLEAR     66  32  28 E8        29.88R
$$

TXZ173-191>194-202-209-217>225-228-180300-
CENTRAL AND SOUTH CENTRAL TEXAS

CITY           SKY/WX    TMP DP  RH WIND       PRES   REMARKS
GEORGETOWN     CLOUDY    50  33  52 N8        30.02R WCI  47
AUSTIN/BERGSTM CLOUDY    53  35  50 N14       29.97R
AUSTIN/MABRY   CLOUDY    53  33  46 VRB7      29.98R
*AUSTIN/EXEC   CLOUDY    50  36  57 N13       29.99R WCI  45
*LAGO VISTA    CLOUDY    51  27  39 NE12G17   29.97R
SAN MARCOS     CLOUDY    52  36  54 NE14      29.97R
NEW BRAUNFELS  CLOUDY    53  36  52 NE12      29.93R
RANDOLPH AFB   CLOUDY    56  38  50 E9        29.93R
PT SAN ANTONIO CLOUDY    59  36  42 N18       29.91R
SAN ANTONIO    CLOUDY    57  36  45 NE12      29.93R
STINSON FIELD  CLOUDY    59  35  40 NE10      29.91R
*LA GRANGE     CLOUDY    53  41  64 N7        29.94R
*GIDDINGS      CLOUDY    54  42  66 N6        29.97R
*GONZALES      CLOUDY    53  41  63 N7        29.93R
$$

TXZ163>164-176>182-195>201-210>213-226-227-235-180300-
SOUTHEAST TEXAS

CITY           SKY/WX    TMP DP  RH WIND       PRES   REMARKS
COLLEGE STN    CLOUDY    51  37  58 N12       29.99R
*BRYAN         CLOUDY    49  37  61 N7        30.02R WCI  46
*CALDWELL      CLOUDY    50  38  62 N6        29.99R WCI  48
*CROCKETT        N/A     45  37  76 N5        30.05R WCI  42
*BRENHAM       CLOUDY    51  40  66 N8        29.99R
HUNTSVILLE     CLOUDY    48  37  65 NE3       30.00R
CONROE         CLEAR     51  44  77 N7        29.98R
HOUSTON BUSH   PTCLDY    53  46  77 N10       29.96R
HOUSTON HOBBY  FAIR      55  43  63 N13       29.93R
*HOUSTON SW AP FAIR      55  45  68 N10       29.94R
PEARLAND       FAIR      56  46  69 N14G20    29.95R
HOUSTON HOOKS  FAIR      53  43  68 N10       29.97R
ELLINGTON FLD  PTCLDY    55  43  62 N10       29.96R
SUGAR LAND     FAIR      56  44  64 N14       29.94R
*HOUSTON EXEC  FAIR      50  45  81 N10       29.97R WCI  46
*CLEVELAND MUN FAIR      49  45  84 N3        29.99R
*WHARTON       CLEAR     53  42  67 N13       29.93R
*COLUMBUS      FAIR      52  39  61 N8        29.95R
*EAGLE LAKE    CLOUDY    51  44  75 N12       29.94
$$

TXZ214>216-236>238-180300-
THE UPPER TEXAS COAST

CITY           SKY/WX    TMP DP  RH WIND       PRES   REMARKS
*ORANGE        CLOUDY    51  47  88 N14G21    29.96R
PORT ARTHUR    CLOUDY    52  44  74 N15G23    29.94R
GALVESTON      CLOUDY    57  48  72 N24G32    29.93R
ANGLETON       FAIR      56  48  74 NE10      29.91R
*BAY CITY      CLEAR     56  49  77 NE7       29.90R
PALACIOS       CLEAR     57  48  72 N17       29.87R
$$

TXZ229>234-239>247-180300-
TEXAS COASTAL BEND AND RIO GRANDE PLAINS

CITY           SKY/WX    TMP DP  RH WIND       PRES   REMARKS
VICTORIA       CLEAR     55  42  61 N15       29.88S
*BEEVILLE      CLEAR     60  40  46 NE7       29.90R
ROCKPORT       CLEAR     59  49  69 NE16G22   29.88R
*PORT ARANSAS  CLEAR     61  51  70 NE18      29.89R
*PORT LAVACA   CLEAR     58  49  71 N13G20    29.88R
*INGLESIDE     CLEAR     62  48  61 NE10      29.88R
CORPUS CHRISTI PTCLDY    63  46  54 NE21G28   29.87R
CORPUS NAS     CLEAR     65  52  62 NE18      29.87R
*ROBSTOWN      NOT AVBL
ALICE          CLEAR     62  44  51 N10       29.88R
KINGSVILLE NAS PTCLDY    63  45  51 NE9       29.88R
COTULLA        CLEAR     62  34  35 E10       29.90R
LAREDO         CLEAR     69  36  29 E13       29.88R
$$

TXZ248>255-180300-
DEEP SOUTH TEXAS

CITY           SKY/WX    TMP DP  RH WIND       PRES   REMARKS
BROWNSVILLE    CLOUDY    64  60  87 N15G21    29.85R
PORT ISABEL    CLOUDY    62  57  83 N16       29.83R
HARLINGEN      CLOUDY    65  52  62 NE15      29.85R
*HEBBRONVILLE  CLEAR     62  35  37 CALM      29.90R
MCALLEN        CLOUDY    71  61  70 NE8       29.86R
*WESLACO       CLOUDY    64  55  70 NE13      29.85R
FALFURRIAS     CLEAR     63  45  52 NE6       29.87R
EDINBURG       CLOUDY    67  56  68 NE9       29.87R
*ZAPATA        FAIR      69  34  27 NE7       29.87R
$$

TXZ213>215-236>238-242>244-246-247-251-254-255-180300-
CMAN STATIONS

STATION/POSITION TIME  TEMP    WIND        PRES    WAVE
                       AIR SEA DIR/SP/G            HT/PER
                 (UTC) (F)     (DEG/KT/KT) (MB)    (FT/S)
SABINE PASS      0142   53 64   10/ 19/ 25 1015.2
SEA RIM ST PARK  0100   52     360/ 14/ 17 1012.4
NORTH JETTY/GLS  0136   55 60   20/ 21/ 25 1012.5
EAGLE POINT      0136   56 62   30/ 13/ 18 1013.6
MORGANS POINT    0136   55 61   10/  6/  9 1013.7
PORT O`CONNOR    0130   59 63   20/ 21/ 24 1010.9
PORT ARANSAS     0100   63 61   20/ 15/ 19 1010.2
MALAQUITE BEACH  0130   62 62   20/ 19/ 22 1010.2
BAFFIN BAY       0136   63 69   30/ 17/ 20 1011.0
PORT ISABEL      0130   62 64  360/ 16/ 23 1009.4
$$




USA.gov is the U.S. government's official web portal to all federal, state and local government web resources and services.